SL-16 DEB, 22394

Orbit data source: Space-Track

SL-16 DEB, 22394 is space debris in LEO originally from a launch on Fri, 25 Dec 1992 UTC launched from the Tyuratam Missile And Space Complex (TTMTR). Debris objects in space refer to the collection of defunct objects orbiting the Earth. Examples of debris include non-operational satellites, rocket bodies, and fragments generated from explosions, collisions, or faulty payload assembly.

Loading next visibility...
Identifier
22394, 1992-093CK
Orbit
LEO
Country
Flag of CISCIS
Related business
Manufacturer
Unknown
Mission
Spacecraft
Bus & Motor
Unknown
Mass
Unknown
Launch date (UTC)
1992-12-25 (33 years ago)
Launch vehicle
Unknown
Launch site
Tyuratam Missile And Space Complex (TTMTR)
Object type
Payload
Rocket body
Debris
Shape & HBR
Unknown shape, 0.4 m
Radar Cross Section
Medium (>0.1 m² and <1 m²)

Expand to show TLE details & history
Last TLE update: 6 hours ago

TLE from 6 hours ago
0 SL-16 DEB
1 22394U 92093CK  26037.11367626  .00002243  00000-0  12477-2 0  9997
2 22394  71.2759 192.5962 0074111 252.9408 106.3586 14.10690372692673
Epoch: 2026-02-06T02:43Z
TLE epoch observation values (Epoch: 2026-02-06T02:43:41.628Z)
Latitude
-0.00006°
Longitude
15.41652°
Altitude
874.893 km
Speed
7.407 km/s
True Right ascension
12h 50m 23s
True Declination
0° 00' 00"
Sunlit
Object was in full shadow at epoch
Visualization orbit readout
Latitude
Unknown
Longitude
Unknown
Altitude
Unknown
Speed
Unknown
Apparent Right ascension
Unknown
Apparent Declination
Unknown
Sunlit
N/A
Visualization observer readout
Local Sidereal Time
10:31:42
Azimuth
Unknown
Elevation
Unknown
Doppler factor
Unknown
Orbital elements
Apogee altitude
908.517 km
Perigee altitude
801.307 km
Semi-major axis
7,233.049 km
Eccentricity
0.00741
Inclination
71.2759°
RAAN
192.5962°
Arg. of periapsis
252.9408°
True anomaly
107.17132°
Mean anomaly
106.3586°
Eccentric anomaly
106.76518°
Mean motion
3.52826 °/min
Orbital period
102.03 mins
BSTAR
0.0012477
Loading maneuver chart data...
Computing Atmospheric mass density...
Loading historical data...
Loading historical data...
Loading historical data...
Loading historical data...
Loading historical data...
Loading historical data...
Loading historical data...

Documentation

Showing up to 5 results
|